K9APR Weather Reports


Display with metric or nautical units.
time (UTC)temp
F
wind
direction
speed
MPH
gust
MPH
rain 1hr
in
rain 24hr
in
rain mn
in
humidity
%
barometer
mb
20260904021821 80 337 0.0 0.0 0.00 0.00 0.00 84 1014.9
20260904020921 81 125 0.0 0.0 0.00 0.00 0.00 83 1014.9
20260904020022 81 125 0.0 0.0 0.00 0.00 0.00 80 1014.7
20260904015122 82 125 0.0 0.0 0.00 0.00 0.00 79 1014.6
20260904014222 82 132 0.0 2.0 0.00 0.00 0.00 79 1014.6
20260904013322 82 137 0.0 0.0 0.00 0.00 0.00 79 1014.3
20260904012422 82 137 0.0 0.0 0.00 0.00 0.00 79 1014.1
20260904011522 82 138 0.0 1.0 0.00 0.00 0.00 79 1014.1
20260904010625 82 138 0.0 0.0 0.00 0.00 0.00 78 1014.1
20260904005722 82 117 0.0 0.0 0.00 0.00 0.00 79 1013.9
20260904004821 83 119 0.0 1.0 0.00 0.00 0.00 79 1014.0
20260904003921 83 143 0.0 0.0 0.00 0.00 0.00 78 1013.9
20260904003022 84 143 0.0 0.0 0.00 0.00 0.00 77 1013.9
20260904002123 84 143 0.0 0.0 0.00 0.00 0.00 76 1013.9
20260904001223 84 143 0.0 0.0 0.00 0.00 0.00 76 1014.0
20260904000322 85 143 0.0 0.0 0.00 0.00 0.00 74 1014.0
20260903235422 85 143 0.0 0.0 0.00 0.00 0.00 74 1014.0
20260903234522 85 143 0.0 0.0 0.00 0.00 0.00 73 1014.0
20260903232722 86 144 0.0 0.0 0.00 0.00 0.00 71 1013.7
20260903231822 87 151 0.0 0.0 0.00 0.00 0.00 70 1013.5
20260903230922 87 150 0.0 0.0 0.00 0.00 0.00 69 1013.4
20260903230022 88 214 0.0 0.0 0.00 0.00 0.00 67 1013.5
20260903225122 88 215 0.0 1.0 0.00 0.00 0.00 68 1013.4
20260903224505 89 155 0.0 0.0 0.00 0.00 0.00 68 1013.5
20260903223603 89 146 0.0 1.0 0.00 0.00 0.00 67 1013.6
20260903222703 90 301 0.0 0.0 0.00 0.00 0.00 66 1013.4
20260903221803 90 302 0.0 1.0 0.00 0.00 0.00 66 1013.5
20260903220904 91 326 0.0 1.0 0.00 0.00 0.00 63 1013.3
20260903220004 92 303 1.0 3.0 0.00 0.00 0.00 63 1013.3
20260903215104 93 130 0.0 0.0 0.00 0.00 0.00 61 1013.2
20260903214203 93 212 0.0 2.0 0.00 0.00 0.00 64 1013.2
20260903213304 92 303 0.0 1.0 0.00 0.00 0.00 62 1013.2
20260903212404 92 250 1.0 2.0 0.00 0.00 0.00 62 1013.1
20260903211558 93 296 0.0 2.0 0.00 0.00 0.00 62 1013.1
20260903210603 93 219 0.0 2.0 0.00 0.00 0.00 63 1013.2
20260903205704 93 308 1.0 1.0 0.00 0.00 0.00 61 1013.2
20260903204804 93 23 0.0 1.0 0.00 0.00 0.00 62 1013.3
20260903203904 93 320 1.0 1.0 0.00 0.00 0.00 61 1013.3
20260903203004 93 172 1.0 5.0 0.00 0.00 0.00 60 1013.4
20260903202837 93 203 0.0 1.0 0.00 0.00 0.00 61 1013.4
20260903201937 93 304 1.0 3.0 0.00 0.00 0.00 60 1013.5
20260903201038 92 277 1.0 2.0 0.00 0.00 0.00 62 1013.6
20260903200137 93 303 2.0 3.0 0.00 0.00 0.00 61 1013.8
20260903195239 93 119 0.0 2.0 0.00 0.00 0.00 60 1014.3
20260903194338 92 277 1.0 3.0 0.00 0.00 0.00 61 1014.4
20260903192538 92 136 1.0 3.0 0.00 0.00 0.00 60 1014.5
20260903191638 93 307 1.0 3.0 0.00 0.00 0.00 60 1014.7
20260903190738 94 298 1.0 3.0 0.00 0.00 0.00 60 1014.8
20260903185838 93 215 1.0 2.0 0.00 0.00 0.00 60 1014.8
20260903184938 93 300 1.0 1.0 0.00 0.00 0.00 61 1014.8
20260903184037 93 103 0.0 3.0 0.00 0.00 0.00 62 1014.8
20260903183137 92 307 0.0 2.0 0.00 0.00 0.00 63 1014.9
20260903182238 92 305 1.0 1.0 0.00 0.00 0.00 63 1015.0
20260903181338 92 281 1.0 2.0 0.00 0.00 0.00 64 1015.2
20260903180437 92 307 2.0 3.0 0.00 0.00 0.00 62 1015.2
20260903175539 92 304 1.0 5.0 0.00 0.00 0.00 64 1015.2
20260903174637 92 295 0.0 1.0 0.00 0.00 0.00 63 1015.4
20260903173737 92 309 2.0 3.0 0.00 0.00 0.00 65 1015.4
20260903172840 92 198 1.0 6.0 0.00 0.00 0.00 66 1015.4
20260903171937 92 348 0.0 1.0 0.00 0.00 0.00 67 1015.5
20260903171037 91 300 1.0 2.0 0.00 0.00 0.00 66 1015.6
20260903170137 90 176 0.0 2.0 0.00 0.00 0.00 69 1015.6
20260903165237 90 305 2.0 7.0 0.00 0.00 0.00 67 1015.7
20260903164337 90 317 0.0 2.0 0.00 0.00 0.00 69 1015.8
20260903163438 90 306 1.0 3.0 0.00 0.00 0.00 70 1015.9
20260903162538 89 302 1.0 2.0 0.00 0.00 0.00 70 1015.9
20260903160738 89 185 1.0 2.0 0.00 0.00 0.00 72 1016.2
20260903155836 88 316 1.0 3.0 0.00 0.00 0.00 72 1016.2
20260903154938 88 307 2.0 3.0 0.00 0.00 0.00 73 1016.1
20260903154037 89 148 0.0 2.0 0.00 0.00 0.00 73 1016.1
20260903153137 88 195 1.0 2.0 0.00 0.00 0.00 73 1016.1
20260903152237 87 176 0.0 2.0 0.00 0.00 0.00 75 1016.1
20260903151338 86 236 0.0 1.0 0.00 0.00 0.00 77 1016.0
20260903150437 85 305 1.0 3.0 0.00 0.00 0.00 77 1016.1
20260903145538 84 295 0.0 3.0 0.00 0.00 0.00 79 1016.1
20260903144638 84 156 0.0 2.0 0.00 0.00 0.00 80 1016.1
20260903143737 83 312 0.0 1.0 0.00 0.00 0.00 80 1016.2
20260903142958 82 310 1.0 3.0 0.00 0.00 0.00 82 1016.1
20260903142915 82 310 1.0 3.0 0.00 0.00 0.00 82 1016.1
20260903142837 82 310 1.0 3.0 0.00 0.00 0.00 82 1016.1
20260903141937 81 232 1.0 3.0 0.00 0.00 0.00 83 1016.2
20260903141038 81 141 0.0 1.0 0.00 0.00 0.00 84 1016.3
20260903140137 80 289 0.0 1.0 0.00 0.00 0.00 84 1016.4
20260903135242 79 304 0.0 0.0 0.00 0.00 0.00 86 1016.6
20260903134457 78 309 0.0 0.0 0.00 0.00 0.00 86 1016.7
20260903134425 78 309 0.0 0.0 0.00 0.00 0.00 86 1016.7
20260903134338 78 309 0.0 0.0 0.00 0.00 0.00 86 1016.7
20260903133437 78 219 0.0 1.0 0.00 0.00 0.00 86 1016.7
20260903132921 77 207 0.0 0.0 0.00 0.00 0.00 87 1016.7
20260903132540 77 207 0.0 0.0 0.00 0.00 0.00 87 1016.7
20260903132008 76 165 0.0 0.0 0.00 0.00 0.00 87 1016.9
20260903131711 76 165 0.0 0.0 0.00 0.00 0.00 87 1016.9
20260903131639 76 165 0.0 0.0 0.00 0.00 0.00 87 1016.9
20260903131004 76 165 0.0 0.0 0.00 0.00 0.00 88 1016.9
20260903130841 76 165 0.0 0.0 0.00 0.00 0.00 88 1016.9
20260903130739 76 165 0.0 0.0 0.00 0.00 0.00 88 1016.9
20260903130010 75 185 0.0 0.0 0.00 0.00 0.00 88 1016.9
20260903125931 75 185 0.0 0.0 0.00 0.00 0.00 88 1016.9
20260903125837 75 185 0.0 0.0 0.00 0.00 0.00 88 1016.9
20260903125350 75 185 0.0 0.0 0.00 0.00 0.00 88 1017.0
20260903125147 75 185 0.0 0.0 0.00 0.00 0.00 88 1017.0
20260903125048 75 185 0.0 0.0 0.00 0.00 0.00 88 1017.0
20260903125012 75 185 0.0 0.0 0.00 0.00 0.00 88 1017.0
20260903124941 75 185 0.0 0.0 0.00 0.00 0.00 88 1017.0
20260903124111 74 185 0.0 0.0 0.00 0.00 0.00 89 1016.8
20260903124037 74 185 0.0 0.0 0.00 0.00 0.00 89 1016.8
20260903123138 74 185 0.0 0.0 0.00 0.00 0.00 88 1016.8
20260903122353 73 185 0.0 0.0 0.00 0.00 0.00 88 1016.8
20260903122311 73 185 0.0 0.0 0.00 0.00 0.00 88 1016.8
20260903122240 73 185 0.0 0.0 0.00 0.00 0.00 88 1016.8
20260903121339 74 185 0.0 0.0 0.00 0.00 0.00 88 1016.9
20260903120437 74 185 0.0 0.0 0.00 0.00 0.00 88 1016.8
20260903115733 73 185 0.0 0.0 0.00 0.00 0.00 88 1016.7
20260903115650 73 185 0.0 0.0 0.00 0.00 0.00 88 1016.7
20260903115537 73 185 0.0 0.0 0.00 0.00 0.00 88 1016.7
20260903114711 74 185 0.0 0.0 0.00 0.00 0.00 88 1016.7
20260903114640 74 185 0.0 0.0 0.00 0.00 0.00 88 1016.7
20260903112957 73 187 0.0 0.0 0.00 0.00 0.00 88 1016.5
20260903112909 73 187 0.0 0.0 0.00 0.00 0.00 88 1016.5
20260903112837 73 187 0.0 0.0 0.00 0.00 0.00 88 1016.5
20260903112020 73 187 0.0 0.0 0.00 0.00 0.00 87 1016.4
20260903111939 73 187 0.0 0.0 0.00 0.00 0.00 87 1016.4
20260903111038 74 187 0.0 0.0 0.00 0.00 0.00 87 1016.4
20260903110136 74 187 0.0 0.0 0.00 0.00 0.00 86 1016.1
20260903105238 74 187 0.0 0.0 0.00 0.00 0.00 86 1016.0
20260903104408 74 187 0.0 0.0 0.00 0.00 0.00 86 1016.0
20260903104336 74 187 0.0 0.0 0.00 0.00 0.00 86 1016.0
20260903103516 75 187 0.0 0.0 0.00 0.00 0.00 86 1015.9
20260903103440 75 187 0.0 0.0 0.00 0.00 0.00 86 1015.9
20260903102621 75 169 0.0 0.0 0.00 0.00 0.00 86 1015.9
20260903102538 75 169 0.0 0.0 0.00 0.00 0.00 86 1015.9
20260903101638 75 167 0.0 0.0 0.00 0.00 0.00 86 1015.9
20260903100046 75 205 0.0 0.0 0.00 0.00 0.00 86 1015.7
20260903100000 75 205 0.0 0.0 0.00 0.00 0.00 86 1015.7
20260903095924 75 205 0.0 0.0 0.00 0.00 0.00 86 1015.7
20260903095838 75 205 0.0 0.0 0.00 0.00 0.00 86 1015.7
20260903095015 75 205 0.0 0.0 0.00 0.00 0.00 86 1015.6
20260903094943 75 205 0.0 0.0 0.00 0.00 0.00 86 1015.6
20260903094118 75 167 0.0 0.0 0.00 0.00 0.00 86 1015.8
20260903094038 75 167 0.0 0.0 0.00 0.00 0.00 86 1015.8
20260903092239 75 169 0.0 0.0 0.00 0.00 0.00 86 1015.8
20260903091428 75 169 0.0 0.0 0.00 0.00 0.00 86 1015.9
20260903091351 75 169 0.0 0.0 0.00 0.00 0.00 86 1015.9
20260903090439 75 169 0.0 0.0 0.00 0.00 0.00 86 1015.9
20260903085614 75 169 0.0 0.0 0.00 0.00 0.00 86 1015.9
20260903085537 75 169 0.0 0.0 0.00 0.00 0.00 86 1015.9
20260903084715 75 169 0.0 0.0 0.00 0.00 0.00 86 1015.9
20260903084639 75 169 0.0 0.0 0.00 0.00 0.00 86 1015.9
20260903083808 75 169 0.0 0.0 0.00 0.00 0.00 86 1015.9
20260903083737 75 169 0.0 0.0 0.00 0.00 0.00 86 1015.9
20260903082917 75 170 0.0 0.0 0.00 0.00 0.00 86 1015.9
20260903082838 75 170 0.0 0.0 0.00 0.00 0.00 86 1015.9
20260903082008 75 170 0.0 0.0 0.00 0.00 0.00 86 1015.9
20260903081937 75 170 0.0 0.0 0.00 0.00 0.00 86 1015.9
20260903081037 75 169 0.0 0.0 0.00 0.00 0.00 86 1015.8
20260903075239 75 173 0.0 0.0 0.00 0.00 0.00 86 1015.8
20260903074338 75 173 0.0 0.0 0.00 0.00 0.00 87 1015.8
20260903073440 75 173 0.0 0.0 0.00 0.00 0.00 87 1015.8
20260903072746 75 173 0.0 0.0 0.00 0.00 0.00 87 1015.9
20260903072707 75 173 0.0 0.0 0.00 0.00 0.00 87 1015.9
20260903072625 75 173 0.0 0.0 0.00 0.00 0.00 87 1015.9
20260903072538 75 173 0.0 0.0 0.00 0.00 0.00 87 1015.9
20260903071637 76 173 0.0 0.0 0.00 0.00 0.00 86 1015.8
20260903070844 76 173 0.0 0.0 0.00 0.00 0.00 86 1015.9
20260903070811 76 173 0.0 0.0 0.00 0.00 0.00 86 1015.9
20260903070738 76 173 0.0 0.0 0.00 0.00 0.00 86 1015.9
20260903065922 76 173 0.0 0.0 0.00 0.00 0.00 85 1015.8
20260903065837 76 173 0.0 0.0 0.00 0.00 0.00 85 1015.8
20260903065027 77 173 0.0 0.0 0.00 0.00 0.00 85 1015.9
20260903064937 77 173 0.0 0.0 0.00 0.00 0.00 85 1015.9
20260903064037 77 163 0.0 0.0 0.00 0.00 0.00 84 1016.0
20260903063142 77 168 0.0 0.0 0.00 0.00 0.00 84 1016.1
20260903061337 76 192 0.0 0.0 0.00 0.00 0.00 85 1016.5
20260903060438 76 207 0.0 0.0 0.00 0.00 0.00 85 1016.9
20260903055612 73 0 0.0 0.0 0.00 0.00 0.00 88 1017.3
20260903055537 73 0 0.0 0.0 0.00 0.00 0.00 88 1017.3
20260903054725 73 0 0.0 0.0 0.00 0.00 0.00 88 1017.1
20260903054638 73 0 0.0 0.0 0.00 0.00 0.00 88 1017.1
20260903053740 73 0 0.0 0.0 0.00 0.00 0.00 88 1017.2
20260903052009 73 0 0.0 0.0 0.00 0.00 0.00 88 1017.1
20260903051937 73 0 0.0 0.0 0.00 0.00 0.00 88 1017.1
20260903051037 73 0 0.0 0.0 0.00 0.00 0.00 88 1017.0
20260903050210 73 0 0.0 0.0 0.00 0.00 0.00 88 1017.0
20260903050138 73 0 0.0 0.0 0.00 0.00 0.00 88 1017.0
20260903045311 73 0 0.0 0.0 0.00 0.00 0.00 88 1017.0
20260903045238 73 0 0.0 0.0 0.00 0.00 0.00 88 1017.0
20260903044426 73 0 0.0 0.0 0.00 0.00 0.00 88 1016.8
20260903044338 73 0 0.0 0.0 0.00 0.00 0.00 88 1016.8
20260903043439 73 0 0.0 0.0 0.00 0.00 0.00 88 1016.7
20260903042623 73 0 0.0 0.0 0.00 0.00 0.00 88 1016.6
20260903042541 73 0 0.0 0.0 0.00 0.00 0.00 88 1016.6
20260903041713 73 0 0.0 0.0 0.00 0.00 0.00 88 1016.5
20260903041639 73 0 0.0 0.0 0.00 0.00 0.00 88 1016.5
20260903040811 73 0 0.0 0.0 0.00 0.00 0.00 88 1016.7
20260903040740 73 0 0.0 0.0 0.00 0.00 0.00 88 1016.7
20260903035837 73 0 0.0 0.0 0.00 0.00 0.00 88 1016.7
20260903034938 73 0 0.0 0.0 0.00 0.00 0.00 88 1016.7
20260903034130 73 0 0.0 0.0 0.00 0.00 0.00 88 1016.9
20260903034036 73 0 0.0 0.0 0.00 0.00 0.00 88 1016.9
20260903033248 73 0 0.0 0.0 0.00 0.00 0.00 88 1016.8
20260903033137 73 0 0.0 0.0 0.00 0.00 0.00 88 1016.8
20260903031338 73 0 0.0 0.0 0.00 0.00 0.00 88 1016.9
20260903030437 73 0 0.0 0.0 0.00 0.00 0.00 88 1017.1
20260903025610 73 0 0.0 0.0 0.00 0.00 0.00 88 1017.0
20260903025538 73 0 0.0 0.0 0.00 0.00 0.00 88 1017.0
20260903024719 73 0 0.0 0.0 0.00 0.00 0.00 88 1017.2
20260903024638 73 0 0.0 0.0 0.00 0.00 0.00 88 1017.2
20260903023738 73 0 0.0 0.0 0.00 0.00 0.00 88 1017.3
20260903022838 73 0 0.0 0.0 0.00 0.00 0.00 88 1017.2
20260903022731 73 0 0.0 0.0 0.00 0.00 0.00 88 1017.1